This is the latest recevied weather packets stored in our database for station/object KC1TEM-13. If no packets are shown the sender has not sent any weather packets the latest 10 day(s).
| Time | Temp. | Humidity | Pressure | Rain* | Wind** | Luminosity | Snow |
|---|---|---|---|---|---|---|---|
| 1778104904 | 15.56° C | 93% | 1006.3 hPa | 0 mm | - | 26 W/m² | - |
| 1778104601 | 15.56° C | 93% | 1005.9 hPa | 0 mm | - | 21 W/m² | - |
| 1778104297 | 15.56° C | 93% | 1006.2 hPa | 0 mm | - | 29 W/m² | - |
| 1778103994 | 15.56° C | 92% | 1006 hPa | 0.51 mm | - | 20 W/m² | - |
| 1778103692 | 15.56° C | 92% | 1006.3 hPa | 0 mm | - | 23 W/m² | - |
| 1778103389 | 15.56° C | 93% | 1006.3 hPa | 0 mm | - | 42 W/m² | - |
| 1778103086 | 15.56° C | 93% | 1006.4 hPa | 0.51 mm | - | 51 W/m² | - |
| 1778102784 | 15.56° C | 93% | 1006.6 hPa | 1.27 mm | - | 25 W/m² | - |
| 1778102478 | 16.11° C | 92% | 1006.4 hPa | 1.27 mm | - | 25 W/m² | - |
| 1778102174 | 16.11° C | 91% | 1006.7 hPa | 1.27 mm | - | 52 W/m² | - |
| 1778101871 | 16.11° C | 91% | 1007 hPa | 2.29 mm | - | 60 W/m² | - |
| 1778101568 | 16.11° C | 91% | 1006.8 hPa | 2.29 mm | - | 81 W/m² | - |
| 1778101264 | 16.11° C | 92% | 1006.7 hPa | 2.29 mm | - | 89 W/m² | - |
| 1778100961 | 16.11° C | 91% | 1006.9 hPa | 1.78 mm | - | 67 W/m² | - |
| 1778100657 | 16.11° C | 91% | 1006.8 hPa | 1.78 mm | - | 79 W/m² | - |
| 1778100355 | 16.11° C | 91% | 1007 hPa | 1.78 mm | - | 95 W/m² | - |
| 1778100051 | 16.67° C | 90% | 1006.9 hPa | 1.78 mm | - | 70 W/m² | - |
| 1778099750 | 16.67° C | 90% | 1007 hPa | 2.29 mm | - | 68 W/m² | - |
| 1778099446 | 16.67° C | 89% | 1006.9 hPa | 3.05 mm | - | 78 W/m² | - |
| 1778099144 | 16.67° C | 89% | 1006.7 hPa | 2.29 mm | - | 52 W/m² | - |
| 1778098840 | 16.67° C | 88% | 1006.9 hPa | 1.78 mm | - | 34 W/m² | - |
| 1778098538 | 16.67° C | 88% | 1006.7 hPa | 3.05 mm | - | 57 W/m² | - |
| 1778098234 | 17.22° C | 86% | 1006.8 hPa | 2.29 mm | - | 73 W/m² | - |
| 1778097930 | 17.22° C | 85% | 1006.7 hPa | 0.51 mm | - | 47 W/m² | - |
| 1778097627 | 17.22° C | 85% | 1006.8 hPa | 1.27 mm | - | 27 W/m² | - |
* Rain latest hour (hover to see other rain measurements)
** Current wind speed in m/s (hover to see current wind gust speed)